Location: Unspecified
(36.3731°N, 0.0000°E)
Time: 14:42:07
(UTC+00:00)

Tiangong - Visible Passes

Search period start: 04 April 2026 00:00
Search period end: 14 April 2026 00:00
Orbit: 380 x 386 km, 41.5° (Epoch: 28 March)

Date Brightness Start Highest point End Pass type
(mag) Time Alt. Az. Time Alt. Az. Time Alt. Az.
4 Apr -0.7 19:49:58 10° WNW 19:52:50 31° N 19:53:51 25° NNE visible
5 Apr -0.9 18:49:21 10° W 18:52:19 37° N 18:55:17 10° ENE visible
5 Apr -0.1 20:26:38 10° WNW 20:28:34 26° NNW 20:28:34 26° NNW visible
6 Apr -0.6 19:26:07 10° WNW 19:28:57 30° N 19:31:03 15° ENE visible
6 Apr 1.4 21:02:59 10° WNW 21:03:13 12° WNW 21:03:13 12° WNW visible
7 Apr -1.2 20:02:34 10° WNW 20:05:33 38° NNE 20:05:38 38° NNE visible
8 Apr -0.8 19:02:04 10° WNW 19:04:57 32° N 19:07:49 10° ENE visible
8 Apr 0.3 20:38:49 10° WNW 20:40:12 24° WNW 20:40:12 24° WNW visible
9 Apr -1.7 19:38:20 10° WNW 19:41:25 53° NNE 19:42:34 32° ENE visible
10 Apr -1.3 20:14:35 10° WNW 20:17:06 45° WSW 20:17:06 45° WSW visible
11 Apr -2.2 19:13:59 10° WNW 19:17:08 84° NNE 19:19:30 16° ESE visible
11 Apr 1.1 20:51:35 10° WSW 20:51:39 10° WSW 20:51:39 10° WSW visible
12 Apr -0.7 19:50:24 10° W 19:53:11 29° SSW 19:54:04 25° S visible
